星链-5588 (STARLINK-5588 )

导读

STARLINK-5588是美国太空探索技术公司(SpaceX)星链(Starlink)星座的卫星,于2023年1月26日发射入轨,属于星链项目第二阶段组网卫星,主要为全球提供高速卫星互联网服务,尤其覆盖偏远地区,助力全球互联,是SpaceX大规模低轨卫星星座建设计划的组成部分。

Basic Information
目录编号:
55375
目录名称:
STARLINK-5588
国际标识:
2023-013AW
轨道中心:
EARTH
卫星名称:
星链-5588
卫星全名:
星链-5588 (STARLINK-5588 )
卫星状态:
在轨 (已飞行1317 天)
发射日期:
2023-01-26 UTC
国别 :
美国 (US)
星等 :
--
Orbit Information
数据来源 国际轨道数据 AOE轨道数据
星历时间 2026-09-04T03:15:50+0800
11小时前
查看轨道信息
2026-08-30T02:00:00+0800
5天前
查看轨道信息
半长轴 6861.219km 6861.176km
偏心率 0.0001316 0.0001417
轨道倾角 43.005° 43.005°
近地点辐角 276.705° 263.981°
升交点赤经 35.612° 64.152°
平近点角 83.365° 357.509°
近地点 482.179km 482.066km
远地点 483.985km 484.012km
周期 94.267分钟 94.267分钟
每日圈数 15.275691 15.275837
Detailed Information
固有亮度:
5
最大亮度:
2.5
卫星平台:
Starlink v1.5
覆盖范围:
全球
运营商:
太空探索技术公司
运营商所在国:
美国
制造商(研发单位):
太空探索技术公司
制造商所在国:
美国
使用方式:
暂无
Satellite Introduction
星链(Starlink)计划是由太空探索技术公司(SpaceX)提出的一个巨型低轨卫星互联网星座项目,计划在2019年至2024年间在太空搭建由约1.2万颗卫星组成的“星链”网络,其中1584颗将部署在地球上空550千米处的近地轨道,并从2020年开始工作。该卫星仍在工作。
2D Orbit Map
3D Orbit Map
Orbit Altitude Analysis Chart
Orbit Inclination Analysis Chart
Orbit Comprehensive Analysis Chart
View Comprehensive Chart
Conjunction Data List
Event ID Objects TCA Miss Dist (km) Collision Risk Probability Collision Risk Index (CRI) Action
CDM_260904-233605-537506-196721
2026-09-04T
23:36:09+0000
0.371 km
远距离
3.030264E-4 高风险 0.85
CDM_260904-075505-537506-396422
2026-09-04T
07:55:07+0000
0.677 km
远距离
7.237639E-5 中风险 0.72
CDM_260904-092905-537506-396422
2026-09-04T
09:29:17+0000
1.840 km
极远距离
2.771134E-6 低风险 0.44
CDM_260904-220205-537506-196721
2026-09-04T
22:02:00+0000
1.853 km
极远距离
2.734244E-6 低风险 0.44
CDM_260904-211505-537506-396421
2026-09-04T
21:15:25+0000
2.605 km
极远距离
1.294997E-6 低风险 0.37
CDM_260904-062005-537506-396422
2026-09-04T
06:20:58+0000
2.697 km
极远距离
1.228283E-6 低风险 0.37
CDM_260904-065905-537505-694422
2026-09-04T
06:59:36+0000
2.704 km
极远距离
1.00504E-6 低风险 0.35